• în Republica Moldova
  • Lista ţărilor
  • Pe 7 zile
  • Temperatura apei
  • Hartă satelitară
  • Meteo pe hartă
  • Widget-uri
  • user-avatar
    Intrare

    Meteo pe oră la Graz

    Astăzi, 27 Februarie, Luni

    Timp Temperatura Precipitaţii Vânt Presiune Umiditate
    00:00 +3°C° 0 mm 1 m/s 723 mmHg 82%
    01:00 +3°C° 0 mm 1 m/s 723 mmHg 79%
    02:00 +3°C° 0 mm 1 m/s 723 mmHg 79%
    03:00 +3°C° 0 mm 1 m/s 722 mmHg 80%
    04:00 +2°C° 0 mm 1 m/s 722 mmHg 80%
    05:00 +2°C° 0 mm 1 m/s 722 mmHg 80%
    06:00 +2°C° 0 mm 1 m/s 722 mmHg 80%
    07:00 +3°C° 0 mm 1 m/s 722 mmHg 75%
    08:00 +4°C° 0 mm 1 m/s 722 mmHg 73%
    09:00 +6°C° 0 mm 1 m/s 722 mmHg 72%
    10:00 +8°C° 0 mm 1 m/s 722 mmHg 71%
    11:00 +8°C° 0 mm 2 m/s 721 mmHg 71%
    12:00 +9°C° 0 mm 2 m/s 721 mmHg 71%
    13:00 +10°C° 0 mm 2 m/s 720 mmHg 71%
    14:00 +10°C° 0 mm 2 m/s 720 mmHg 73%
    15:00 +9°C° 0 mm 2 m/s 719 mmHg 75%
    16:00 +9°C° 0 mm 3 m/s 719 mmHg 78%
    17:00 +7°C° 0 mm 2 m/s 718 mmHg 82%
    18:00 +5°C° 0 mm 2 m/s 718 mmHg 87%
    19:00 +3°C° 0 mm 2 m/s 718 mmHg 92%
    20:00 +3°C° 0 mm 2 m/s 718 mmHg 92%
    21:00 +2°C° 0 mm 2 m/s 717 mmHg 93%
    22:00 +2°C° 0 mm 2 m/s 717 mmHg 93%
    23:00 +2°C° 0 mm 2 m/s 717 mmHg 93%

    Mâine, 28 Februarie, Marţi

    Timp Temperatura Precipitaţii Vânt Presiune Umiditate
    00:00 +1°C° 0 mm 2 m/s 717 mmHg 92%
    01:00 +1°C° 0 mm 2 m/s 716 mmHg 92%
    02:00 +1°C° 0 mm 2 m/s 716 mmHg 92%
    03:00 +1°C° 0 mm 2 m/s 715 mmHg 92%
    04:00 +1°C° 0 mm 2 m/s 715 mmHg 91%
    05:00 0°C° 0 mm 3 m/s 714 mmHg 92%
    06:00 +1°C° 0 mm 3 m/s 714 mmHg 93%
    07:00 +1°C° 0 mm 3 m/s 713 mmHg 93%
    08:00 +3°C° 0 mm 3 m/s 713 mmHg 89%
    09:00 +5°C° 0 mm 4 m/s 714 mmHg 85%
    10:00 +7°C° 0 mm 4 m/s 714 mmHg 81%
    11:00 +8°C° 0 mm 4 m/s 714 mmHg 79%
    12:00 +8°C° 0 mm 4 m/s 714 mmHg 78%
    13:00 +10°C° 0 mm 3 m/s 714 mmHg 76%
    14:00 +9°C° 0,1 mm 3 m/s 714 mmHg 80%
    15:00 +8°C° 0,1 mm 3 m/s 714 mmHg 84%
    16:00 +8°C° 0,1 mm 3 m/s 713 mmHg 88%
    17:00 +8°C° 0,1 mm 3 m/s 713 mmHg 89%
    18:00 +7°C° 0,1 mm 3 m/s 712 mmHg 91%
    19:00 +7°C° 0,1 mm 3 m/s 712 mmHg 92%
    20:00 +7°C° 0,1 mm 3 m/s 712 mmHg 93%
    21:00 +6°C° 0,1 mm 4 m/s 711 mmHg 93%
    22:00 +6°C° 0,1 mm 4 m/s 711 mmHg 94%
    23:00 +5°C° 0,4 mm 4 m/s 711 mmHg 94%

    Poimâine, 1 Martie, Miercuri

    Timp Temperatura Precipitaţii Vânt Presiune Umiditate
    00:00 +5°C° 0,4 mm 3 m/s 711 mmHg 94%
    01:00 +5°C° 0,4 mm 3 m/s 712 mmHg 95%
    02:00 +4°C° 0,9 mm 3 m/s 712 mmHg 93%
    03:00 +5°C° 0,9 mm 2 m/s 712 mmHg 92%
    04:00 +4°C° 0,9 mm 2 m/s 712 mmHg 91%
    05:00 +3°C° 0,6 mm 2 m/s 713 mmHg 91%
    06:00 +3°C° 0,6 mm 2 m/s 713 mmHg 91%
    07:00 +4°C° 0,6 mm 1 m/s 714 mmHg 91%
    08:00 +4°C° 0,1 mm 1 m/s 714 mmHg 89%
    09:00 +5°C° 0,1 mm 1 m/s 715 mmHg 87%
    10:00 +5°C° 0,1 mm 1 m/s 716 mmHg 85%
    11:00 +5°C° 0 mm 2 m/s 716 mmHg 81%
    12:00 +6°C° 0 mm 2 m/s 716 mmHg 77%
    13:00 +6°C° 0 mm 2 m/s 717 mmHg 73%
    14:00 +7°C° 0,1 mm 2 m/s 717 mmHg 74%
    15:00 +8°C° 0,1 mm 1 m/s 718 mmHg 75%
    16:00 +8°C° 0,1 mm 1 m/s 718 mmHg 75%
    17:00 +6°C° 0 mm 1 m/s 719 mmHg 80%
    18:00 +5°C° 0 mm 1 m/s 720 mmHg 84%
    19:00 +2°C° 0 mm 2 m/s 720 mmHg 89%
    20:00 +2°C° 0 mm 2 m/s 721 mmHg 89%
    21:00 +1°C° 0 mm 2 m/s 722 mmHg 89%
    22:00 +2°C° 0 mm 1 m/s 722 mmHg 89%
    23:00 +2°C° 0 mm 1 m/s 723 mmHg 88%

    2 Martie, Joi

    Timp Temperatura Precipitaţii Vânt Presiune Umiditate
    00:00 +2°C° 0 mm 1 m/s 723 mmHg 88%
    01:00 +1°C° 0 mm 1 m/s 723 mmHg 88%
    02:00 +1°C° 0 mm 1 m/s 723 mmHg 88%
    03:00 +2°C° 0 mm 1 m/s 723 mmHg 88%
    04:00 +2°C° 0 mm 1 m/s 722 mmHg 88%
    05:00 +2°C° 0 mm 1 m/s 722 mmHg 87%
    06:00 +3°C° 0 mm 1 m/s 722 mmHg 87%
    07:00 +3°C° 0 mm 1 m/s 723 mmHg 87%
    08:00 +4°C° 0 mm 1 m/s 723 mmHg 84%
    09:00 +6°C° 0 mm 1 m/s 723 mmHg 81%
    10:00 +6°C° 0 mm 2 m/s 723 mmHg 77%
    11:00 +8°C° 0 mm 1 m/s 723 mmHg 75%
    12:00 +10°C° 0 mm 1 m/s 723 mmHg 72%
    13:00 +11°C° 0 mm 1 m/s 723 mmHg 70%
    14:00 +11°C° 0 mm 1 m/s 723 mmHg 72%
    15:00 +11°C° 0 mm 1 m/s 723 mmHg 75%
    16:00 +11°C° 0 mm 1 m/s 724 mmHg 77%
    17:00 +9°C° 0 mm 1 m/s 724 mmHg 82%
    18:00 +7°C° 0 mm 1 m/s 724 mmHg 86%
    19:00 +6°C° 0 mm 1 m/s 725 mmHg 91%
    20:00 +6°C° 0 mm 1 m/s 725 mmHg 91%
    21:00 +5°C° 0 mm 1 m/s 725 mmHg 91%
    22:00 +5°C° 0 mm 1 m/s 726 mmHg 91%
    23:00 +5°C° 0 mm 1 m/s 726 mmHg 92%

    3 Martie, Vineri

    Timp Temperatura Precipitaţii Vânt Presiune Umiditate
    00:00 +4°C° 0 mm 1 m/s 725 mmHg 93%
    01:00 +4°C° 0 mm 1 m/s 725 mmHg 94%
    02:00 +4°C° 0 mm 1 m/s 725 mmHg 95%
    03:00 +3°C° 0 mm 1 m/s 725 mmHg 95%
    04:00 +3°C° 0 mm 1 m/s 725 mmHg 95%
    05:00 +3°C° 0 mm 1 m/s 725 mmHg 96%
    06:00 +3°C° 0 mm 1 m/s 725 mmHg 96%
    07:00 +4°C° 0 mm 1 m/s 725 mmHg 96%
    08:00 +5°C° 0 mm 1 m/s 725 mmHg 92%
    09:00 +7°C° 0 mm 1 m/s 725 mmHg 88%
    10:00 +8°C° 0 mm 1 m/s 725 mmHg 84%
    11:00 +8°C° 0 mm 2 m/s 724 mmHg 82%
    12:00 +9°C° 0 mm 2 m/s 723 mmHg 81%
    13:00 +9°C° 0 mm 3 m/s 723 mmHg 79%
    14:00 +9°C° 0 mm 3 m/s 722 mmHg 81%
    15:00 +9°C° 0 mm 3 m/s 722 mmHg 83%
    16:00 +9°C° 0 mm 3 m/s 721 mmHg 85%
    17:00 +8°C° 0 mm 3 m/s 721 mmHg 89%
    18:00 +7°C° 0 mm 3 m/s 720 mmHg 92%
    19:00 +5°C° 0 mm 3 m/s 720 mmHg 96%
    20:00 +5°C° 0 mm 3 m/s 720 mmHg 96%
    21:00 +5°C° 0 mm 3 m/s 720 mmHg 95%
    22:00 +5°C° 0 mm 3 m/s 719 mmHg 95%
    23:00 +4°C° 0 mm 3 m/s 719 mmHg 94%

    4 Martie, Sâmbătă

    Timp Temperatura Precipitaţii Vânt Presiune Umiditate
    00:00 +4°C° 0 mm 3 m/s 719 mmHg 93%
    01:00 +4°C° 0 mm 3 m/s 719 mmHg 92%
    02:00 +3°C° 0 mm 3 m/s 719 mmHg 92%
    03:00 +3°C° 0 mm 3 m/s 719 mmHg 92%
    04:00 +3°C° 0 mm 3 m/s 719 mmHg 93%
    05:00 +4°C° 0 mm 2 m/s 719 mmHg 93%
    06:00 +4°C° 0 mm 2 m/s 719 mmHg 94%
    07:00 +4°C° 0 mm 2 m/s 720 mmHg 94%
    08:00 +6°C° 0 mm 2 m/s 720 mmHg 90%
    09:00 +8°C° 0 mm 3 m/s 721 mmHg 85%
    10:00 +9°C° 0 mm 3 m/s 721 mmHg 80%
    11:00 +10°C° 0 mm 3 m/s 721 mmHg 78%
    12:00 +11°C° 0 mm 3 m/s 721 mmHg 75%
    13:00 +12°C° 0 mm 3 m/s 721 mmHg 72%
    14:00 +12°C° 0 mm 3 m/s 721 mmHg 75%
    15:00 +11°C° 0 mm 3 m/s 721 mmHg 77%
    16:00 +11°C° 0 mm 3 m/s 720 mmHg 79%
    17:00 +10°C° 0 mm 2 m/s 720 mmHg 84%
    18:00 +9°C° 0 mm 2 m/s 720 mmHg 88%
    19:00 +8°C° 0 mm 2 m/s 720 mmHg 92%
    20:00 +7°C° 0 mm 2 m/s 720 mmHg 93%
    21:00 +7°C° 0 mm 2 m/s 720 mmHg 94%
    22:00 +7°C° 0 mm 2 m/s 720 mmHg 94%
    23:00 +6°C° 0 mm 2 m/s 720 mmHg 95%
    Arată mai mult